This demonstration page uses our WeatherBlox Daily Observations layout. Learn more.

Left ArrowRight Arrow

36.17497, -115.13722

Hourly Observations for August 28, 2019

Temp ( °F °C ) Dew Point ( °F °C ) Humidity (%) Winds ( mph kmh ) Pressure ( in mb ) Visibility ( mi km ) Precip ( " mm )
12:53 am 00:53 Clear 91 32.8 51 10.6 26 26 NW 6 9 29.78 1008 10 16 0.00 0.00
1:53 am 01:53 Clear 90 32.2 51 10.6 26 26 Calm 29.78 1009 10 16 0.00 0.00
2:53 am 02:53 Clear 87 30.6 52 11.1 30 30 NW 5 7 29.78 1009 10 16 0.00 0.00
3:53 am 03:53 Clear 85 29.4 48 8.9 28 28 NW 5 7 29.80 1009 10 16 0.00 0.00
4:53 am 04:53 Clear 84 28.9 49 9.4 30 30 NW 5 7 29.81 1010 10 16 0.00 0.00
5:53 am 05:53 Clear 83 28.3 48 8.9 30 30 NNW 5 7 29.83 1010 10 16 0.00 0.00
6:53 am 06:53 Sunny 83 28.3 50 10 32 32 NNW 5 7 29.85 1011 10 16 0.00 0.00
7:53 am 07:53 Sunny 88 31.1 50 10 27 27 Calm 29.87 1012 10 16 0.00 0.00
8:53 am 08:53 Sunny 93 33.9 49 9.4 22 22 ESE 5 7 29.89 1012 10 16 0.00 0.00
9:53 am 09:53 Sunny 96 35.6 47 8.3 19 19 E 8 13 29.90 1012 10 16 0.00 0.00
10:53 am 10:53 Sunny 99 37.2 48 8.9 18 18 ESE 6 9 29.89 1012 10 16 0.00 0.00
11:53 am 11:53 Sunny 102 38.9 48 8.9 16 16 E 8 13 29.88 1012 10 16 0.00 0.00
12:53 pm 12:53 Sunny 105 40.6 47 8.3 14 14 SSE 8 13 29.85 1011 10 16 0.00 0.00
1:53 pm 13:53 Sunny 107 41.7 39 3.9 10 10 SSW 14 22 29.82 1010 10 16 0.00 0.00
2:53 pm 14:53 Sunny 107 41.7 41 5 11 11 SSW 5 7 29.79 1009 10 16 0.00 0.00
3:53 pm 15:53 Sunny 108 42.2 43 6.1 11 11 SW 8 13 29.76 1008 10 16 0.00 0.00
4:53 pm 16:53 Sunny 108 42.2 42 5.6 11 11 WSW 16 26 29.75 1007 10 16 0.00 0.00
5:53 pm 17:53 Sunny 106 41.1 43 6.1 12 12 SW 15 24 29.75 1007 10 16 0.00 0.00
6:53 pm 18:53 Sunny 104 40 43 6.1 12 12 SW 14 22 29.75 1007 10 16 0.00 0.00
7:53 pm 19:53 Clear 102 38.9 43 6.1 13 13 SSW 9 15 29.76 1008 10 16 0.00 0.00
8:53 pm 20:53 Clear 100 37.8 43 6.1 14 14 S 9 15 29.78 1008 10 16 0.00 0.00
9:53 pm 21:53 Clear 98 36.7 46 7.8 17 17 S 10 17 29.79 1009 10 16 0.00 0.00
10:53 pm 22:53 Clear 97 36.1 47 8.3 18 18 SSW 6 9 29.81 1009 10 16 0.00 0.00
11:53 pm 23:53 Clear 92 33.3 49 9.4 23 23 Calm 29.83 1010 10 16 0.00 0.00

Powered by AerisWeather